Regional Weather Roundup
Issued by NWS State College, PA

Home | Current Version | Previous Version | Text Only | Print | Product List | Glossary On
Versions: 1 2 3 4 5 6 7 8 9 10 11 12 13 14 15 16 17 18 19 20 21 22 23 24 25 26 27 28 29 30 31 32 33 34 35 36 37 38 39 40 41 42 43 44 45 46 47 48 49 50
000
ASUS41 KCTP 271910
RWRCTP

REGIONAL WEATHER ROUNDUP
NATIONAL WEATHER SERVICE STATE COLLEGE PA
300 PM EDT WED MAY 27 2015

Note: "fair" indicates few or no clouds below 12,000 feet with no
significant weather and/or obstructions to visibility.

* = STATION THAT DOES NOT REPORT PRECIPITATION /E.G. RAIN...SNOW...ETC/
    THUNDER OR FOG.

PAZ002>004-007>009-013>016-020>023-029>032-272000-
WESTERN PENNSYLVANIA

CITY           SKY/WX    TMP DP  RH WIND       PRES   REMARKS
ERIE           CLOUDY    80  58  46 SW13G22   30.02F
MEADVILLE      MOSUNNY   78  59  51 SW8       30.07F
FRANKLIN*      PTSUNNY   77  59  53 SW13G20   30.11F
NEW CASTLE     MOCLDY    82  65  56 S8        30.09F
BEAVER COUNTY  CLOUDY    77  61  57 SW12G17   30.11F
BUTLER*        MOSUNNY   79  63  57 W9G18     30.13F
PITTSBURGH INT PTSUNNY   79  59  50 SW13G22   30.11F
PITTSBURGH     PTSUNNY   78  57  48 SW15      30.12F
INDIANA*       MOSUNNY   77  63  61 W15       30.16F
LATROBE        PTSUNNY   79  63  57 SW17      30.15F
WASHINGTON CO* MOSUNNY   79  63  57 SW9G18    30.15F
$$

PAZ004>006-010>012-017>019-024>028-033>037-041-042-045-046-049>053-272000-
CENTRAL PENNSYLVANIA

CITY           SKY/WX    TMP DP  RH WIND       PRES   REMARKS
BRADFORD       PTSUNNY   75  58  55 SW9       30.11F
DUBOIS         PTSUNNY   76  60  57 VRB7G18   30.11F
CLEARFIELD     PTSUNNY   78  61  55 SW13      30.12F
JOHNSTOWN      PTSUNNY   73  58  59 SW12G23   30.16F
ALTOONA        PTSUNNY   77  63  61 SW12      30.14F
STATE COLLEGE  PTSUNNY   75  64  69 SW14      30.11F
WILLIAMSPORT   CLOUDY    79  64  60 VRB7      30.08F
SELINSGROVE    CLOUDY    79  64  60 VRB3      30.10F
FT INDIANTOWN  LGT RAIN  70  68  94 W8        30.12F
CAPITAL CITY   RAIN      71  67  87 W8        30.13R FOG
HARRISBURG     TSTM      71  68  90 W5        30.12R FOG
YORK           LGT RAIN  70  68  93 SW3       30.15R
$$

PAZ038>040-043-044-047-048-054-055-060>062-067>071-272000-
EASTERN PENNSYLVANIA

CITY           SKY/WX    TMP DP  RH WIND       PRES   REMARKS
SCRANTON       CLOUDY    69  66  90 S7        30.11F
MOUNT POCONO   PTSUNNY   77  62  59 S13G24    30.14F
ALLENTOWN      MOSUNNY   86  66  51 S18G25    30.07F
QUAKERTOWN*    PTCLDY    86  70  58 S13       30.11F
READING        PTSUNNY   87  67  51 S13G23    30.08F
LANCASTER      MOSUNNY   81  68  64 S14G23    30.09F
COATESVILLE    PTCLDY    81  68  65 S9        30.14F
POTTSTOWN      MOSUNNY   86  68  54 SW15G21   30.12F
BLUE BELL      MOSUNNY   86  70  58 SW12G20   30.10F
DOYLESTOWN     MOSUNNY   85  67  54 S13       30.09F
WILLOW GROVE   NOT AVBL
NORTH PHILA    MOSUNNY   89  66  46 S8G22     30.11F
PHILADELPHIA   PTSUNNY   87  67  51 S17       30.11F
$$


USA.gov is the U.S. government's official web portal to all federal, state and local government web resources and services.